Weather History for KJDN - October, 2013

Change the Weather History Date:

Thursday, October 3, 2013

  Actual Average Record
Temperature  
Mean Temperature 41 °F 50 °F  
Max Temperature 45 °F 65 °F 93 °F (1943)
Min Temperature 36 °F 34 °F 8 °F (1999)
Degree Days  
Heating Degree Days 24 16  
Month to date heating degree days 54 46  
Since 1 July heating degree days 215 372  
Cooling Degree Days 0 0  
Month to date cooling degree days 0 0  
Year to date cooling degree days 520 420  
Moisture  
Dew Point 34 °F    
Average Humidity 70    
Maximum Humidity 82    
Minimum Humidity 58    
Precipitation  
Precipitation 0.02 in 0.03 in 0.50 in (1908)
Month to date precipitation 0.02 0.09  
Year to date precipitation 15.48 11.22  
Snow  
Snow 0.00 in - - ()
Month to date snowfall 0.0  
Since 1 July snowfall 0.0  
Since 1 September snowfall 0.0  
Snow Depth 0.00 in    
Sea Level Pressure  
Sea Level Pressure 30.19 in    
Wind  
Wind Speed 12 mph (NNE)    
Max Wind Speed 20 mph    
Max Gust Speed 24 mph    
T = Trace of Precipitation, MM = Missing Value Source: NWS Daily Summary

Daily Weather History Graph

Daily Weather History Graph

Search for Another Location

Airport or City:

Trip Planner

Search our weather history database for the weather conditions in past years. The results will help you decide how hot, cold, wet, or windy it might be!

Date:

Astronomy

Oct. 03, 2013 Rise Set
Actual Time 7:09 AM MDT 6:42 PM MDT
Civil Twilight 6:39 AM MDT 7:13 PM MDT
Nautical Twilight 6:03 AM MDT 7:48 PM MDT
Astronomical Twilight 5:27 AM MDT 8:24 PM MDT
Moon 5:42 AM MDT (10/3) 5:54 PM MDT (10/3)
Length of Visible Light 12h 33m
Length of Day
11h 32m
Waning Crescent, 2% of the Moon is Illuminated
Oct 3
Waning Crescent
Oct 4
New
Oct 11
First Quarter
Oct 18
Full
Oct 26
Last Quarter

Hourly Weather History & Observations

Time (MDT) Temp. Windchill Dew Point Humidity Pressure Visibility Wind Dir Wind Speed Gust Speed Precip Events Conditions
12:48 AM 41.0 °F - 33.1 °F 73% 30.05 in - Calm Calm - N/A   Unknown
1:48 AM 45.0 °F 41.2 °F 30.0 °F 56% 30.04 in - North 6.9 mph - N/A   Unknown
2:48 AM 45.0 °F 39.7 °F 30.9 °F 58% 30.04 in - North 10.4 mph - N/A   Unknown
3:48 AM 44.1 °F 38.6 °F 30.9 °F 60% 30.05 in - NNE 10.4 mph - N/A   Unknown
4:48 AM 43.0 °F 35.4 °F 33.1 °F 68% 30.05 in - North 16.1 mph - N/A   Unknown
5:48 AM 42.1 °F 34.5 °F 34.0 °F 73% 30.07 in - North 15.0 mph - N/A   Unknown
6:48 AM 41.0 °F 33.9 °F 34.0 °F 76% 30.10 in - NNE 12.7 mph - N/A   Unknown
7:48 AM 41.0 °F 36.4 °F 34.0 °F 76% 30.12 in - NNE 6.9 mph - N/A   Unknown
8:48 AM 42.1 °F 34.9 °F 34.0 °F 73% 30.15 in - NE 13.8 mph - N/A   Unknown
9:48 AM 43.0 °F 36.8 °F 34.0 °F 71% 30.17 in - NE 11.5 mph - N/A   Unknown
10:48 AM 43.0 °F 35.7 °F 34.0 °F 71% 30.17 in - NE 15.0 mph 21.9 mph N/A   Unknown
11:48 AM 42.1 °F 33.6 °F 37.0 °F 82% 30.18 in - North 18.4 mph - N/A   Unknown
12:48 PM 42.1 °F 33.3 °F 36.0 °F 79% 30.19 in - North 19.6 mph - N/A   Unknown
1:48 PM 42.1 °F 33.6 °F 36.0 °F 79% 30.19 in - North 18.4 mph - N/A   Unknown
2:48 PM 43.0 °F 36.4 °F 37.0 °F 80% 30.22 in - NNE 12.7 mph - N/A   Unknown
3:48 PM 43.0 °F 36.0 °F 37.9 °F 82% 30.23 in - NNE 13.8 mph - 0.01 in   Unknown
4:48 PM 43.0 °F 36.0 °F 37.9 °F 82% 30.25 in - North 13.8 mph - 0.01 in   Unknown
5:48 PM 43.0 °F 37.2 °F 37.9 °F 82% 30.27 in - NNE 10.4 mph - N/A   Unknown
6:48 PM 42.1 °F 39.2 °F 37.0 °F 82% 30.29 in - NNE 4.6 mph - N/A   Unknown
7:48 PM 42.1 °F 39.2 °F 36.0 °F 79% 30.31 in - North 4.6 mph - N/A   Unknown
8:48 PM 42.1 °F 35.2 °F 32.0 °F 67% 30.34 in - North 12.7 mph - N/A   Unknown
9:48 PM 39.9 °F 32.9 °F 30.0 °F 68% 30.37 in - North 11.5 mph - N/A   Unknown
10:48 PM 39.9 °F 35.1 °F 28.9 °F 65% 30.40 in - North 6.9 mph - N/A   Unknown
11:48 PM 39.0 °F 32.8 °F 28.0 °F 65% 30.39 in - North 9.2 mph - N/A   Unknown